Regional Weather Roundup
Issued by NWS

Home | Current Version | Previous Version | Text Only | Print | Product List | Glossary Off
Versions: 1 2 3 4 5 6 7 8 9 10 11 12 13 14 15 16 17 18 19 20 21 22 23 24 25 26 27 28 29 30 31 32 33 34 35 36 37 38 39 40 41 42 43 44 45 46 47 48 49 50

000
ASUS43 KMKX 221810
RWRWI

WISCONSIN REGIONAL WEATHER ROUNDUP
NATIONAL WEATHER SERVICE MILWAUKEE/SULLIVAN WI
100 PM CDT TUE MAY 22 2018

NOTE: "FAIR" INDICATES FEW OR NO CLOUDS BELOW 12,000 FEET WITH NO
SIGNIFICANT WEATHER AND/OR OBSTRUCTIONS TO VISIBILITY.

WIZ001-002-006>008-014>016-023>028-221900-
NORTHWEST WISCONSIN

CITY           SKY/WX    TMP DP  RH WIND       PRES   REMARKS
SUPERIOR ARPT  PTSUNNY   73  56  53 W6        30.03F
6HR MIN TEMP:  50; 6HR MAX TEMP:  74;

ASHLAND        PTSUNNY   73  48  41 VRB5      30.03F
6HR MIN TEMP:  56; 6HR MAX TEMP:  75;

HAYWARD        CLOUDY    69  53  56 VRB6      30.07F
6HR MIN TEMP:  57; 6HR MAX TEMP:  69;

SIREN          CLOUDY    67  55  64 CALM      30.07S
6HR MIN TEMP:  57; 6HR MAX TEMP:  68;

CUMBERLAND     CLOUDY    63  54  72 CALM      30.08F
RICE LAKE      CLOUDY    64  55  74 CALM      30.10S
6HR MIN TEMP:  56; 6HR MAX TEMP:  64;

CHETEK         CLOUDY    63  56  79 S3        30.09S
6HR MIN TEMP:  55; 6HR MAX TEMP:  63;

LADYSMITH      CLOUDY    68  57  67 SW7       30.09F
6HR MIN TEMP:  54; 6HR MAX TEMP:  69;

EAU CLAIRE     CLOUDY    62  55  77 SW3       30.09S
6HR MIN TEMP:  55; 6HR MAX TEMP:  63;

MENOMONIE      CLOUDY    65  56  74 W5        30.09S
6HR MIN TEMP:  56; 6HR MAX TEMP:  65;

NEW RICHMOND   CLOUDY    64  54  69 SW3       30.09S
6HR MIN TEMP:  56; 6HR MAX TEMP:  64;

OSCEOLA        CLOUDY    67  56  66 NE3       30.10F
6HR MIN TEMP:  58; 6HR MAX TEMP:  67;

$$

WIZ003>005-009-010-017-018-221900-
NORTH CENTRAL WISCONSIN

CITY           SKY/WX    TMP DP  RH WIND       PRES   REMARKS
MANITOWISH WTR CLOUDY    72  46  39 CALM      30.04F
6HR MIN TEMP:  53; 6HR MAX TEMP:  74;

ARBOR VITAE    FAIR      73  49  43 CALM      30.04F
6HR MIN TEMP:  57; 6HR MAX TEMP:  74;

WOODRUFF       FAIR      73  49  43 CALM      30.04F
6HR MIN TEMP:  57; 6HR MAX TEMP:  74;

RHINELANDER    FAIR      74  49  41 VRB3      30.05F
6HR MIN TEMP:  54; 6HR MAX TEMP:  74;

EAGLE RIVER    FAIR      73  38  28 NE6       30.03F
6HR MIN TEMP:  53; 6HR MAX TEMP:  74;

LAND O LAKES   FAIR      74  37  26 NW5       30.05F
6HR MIN TEMP:  53; 6HR MAX TEMP:  74;

PHILLIPS       PTSUNNY   70  55  58 SW6       30.05F
6HR MIN TEMP:  52; 6HR MAX TEMP:  70;

TOMAHAWK       PTSUNNY   68  52  56 CALM      30.06S
6HR MIN TEMP:  50; 6HR MAX TEMP:  70;

MEDFORD        CLOUDY    66  56  68 SW6       30.07F
6HR MIN TEMP:  51; 6HR MAX TEMP:  67;

MERRILL        PTSUNNY   72  57  59 SW6       30.06F
6HR MIN TEMP:  52; 6HR MAX TEMP:  72;

$$

WIZ029-030-035-036-043>047-221900-
CENTRAL WISCONSIN

CITY           SKY/WX    TMP DP  RH WIND       PRES   REMARKS
WAUSAU         CLOUDY    66  56  70 S7        30.05S
6HR MIN TEMP:  52; 6HR MAX TEMP:  68;

MOSINEE        PTSUNNY   66  55  68 SW6       30.08S
MARSHFIELD     CLOUDY    65  57  75 W6        30.07S
6HR MIN TEMP:  53; 6HR MAX TEMP:  65;

STEVENS POINT  CLOUDY    63  56  76 SW6       30.09S
6HR MIN TEMP:  49; 6HR MAX TEMP:  64;

WAUPACA        FAIR      71  57  60 CALM      30.06F
6HR MIN TEMP:  54; 6HR MAX TEMP:  71;

WAUTOMA        CLOUDY    65  57  75 VRB6      30.08F
6HR MIN TEMP:  52; 6HR MAX TEMP:  65;

WISC RAPIDS    CLOUDY    63  55  75 CALM      30.09F
6HR MIN TEMP:  53; 6HR MAX TEMP:  63;

CAMP DOUGLAS   CLOUDY    63  57  82 CALM      30.09S
$$

WIZ011>013-019>022-031-037>040-048>050-221900-
NORTHEAST WISCONSIN

CITY           SKY/WX    TMP DP  RH WIND       PRES   REMARKS
ANTIGO         PTSUNNY   69  56  63 W5        30.06S
6HR MIN TEMP:  48; 6HR MAX TEMP:  69;

SHAWANO        CLOUDY    72  58  61 S6        30.05S
6HR MIN TEMP:  53; 6HR MAX TEMP:  72;

OCONTO         FAIR      62  53  71 S9        30.05S
6HR MIN TEMP:  51; 6HR MAX TEMP:  62;

STURGEON BAY   FAIR      64  54  69 NW3       30.06S
6HR MIN TEMP:  49; 6HR MAX TEMP:  65;

GREEN BAY      FAIR      65  57  75 S6        30.06F
6HR MIN TEMP:  52; 6HR MAX TEMP:  66;

MANITOWOC      CLOUDY    60  53  77 W5        30.08R
6HR MIN TEMP:  49; 6HR MAX TEMP:  60;

APPLETON       CLOUDY    63  54  72 CALM      30.06S
CLINTONVILLE   CLOUDY    69  56  61 S5        30.06S
6HR MIN TEMP:  51; 6HR MAX TEMP:  69;

OSHKOSH        CLOUDY    63  56  78 NW5       30.07S
6HR MIN TEMP:  52; 6HR MAX TEMP:  64;

$$

WIZ032>034-041-042-053>061-221900-
SOUTHWEST WISCONSIN

CITY           SKY/WX    TMP DP  RH WIND       PRES   REMARKS
LA CROSSE      CLOUDY    66  57  72 NW6       30.09S
6HR MIN TEMP:  57; 6HR MAX TEMP:  66;

SPARTA         CLOUDY    59  55  85 CALM      30.11S
6HR MIN TEMP:  51; 6HR MAX TEMP:  59;

VIROQUA        CLOUDY    61  58  92 CALM      30.10F
6HR MIN TEMP:  54; 6HR MAX TEMP:  61;

BOSCOBEL       CLOUDY    66  58  75 CALM      30.09S
6HR MIN TEMP:  57; 6HR MAX TEMP:  67;

PRAIRIE DU CHI CLOUDY    67  58  71 W8        30.08F
6HR MIN TEMP:  59; 6HR MAX TEMP:  67;

PLATTEVILLE    CLOUDY    65  62  87 NW3       30.09F
6HR MIN TEMP:  58; 6HR MAX TEMP:  65;

$$

WIZ056-057-062-063-064-067-068-221900-
SOUTH CENTRAL WISCONSIN

CITY           SKY/WX    TMP DP  RH WIND       PRES   REMARKS
REEDSBURG      CLOUDY    60  58  91 CALM      30.10R
6HR MIN TEMP:  52; 6HR MAX TEMP:  60;

BARABOO/DELLS  CLOUDY    60  54  80 W3        30.10S
6HR MIN TEMP:  51; 6HR MAX TEMP:  60;

LONE ROCK      CLOUDY    64  58  80 VRB3      30.09F
6HR MIN TEMP:  55; 6HR MAX TEMP:  64;

MINERAL POINT  CLOUDY    64  61  88 NW5       30.09F
MADISON        CLOUDY    61  55  81 NW6       30.09R
6HR MIN TEMP:  53; 6HR MAX TEMP:  61;

MIDDLETON      CLOUDY    62  57  82 W5        30.10S
6HR MIN TEMP:  54; 6HR MAX TEMP:  62;

WATERTOWN      CLOUDY    60  57  91 N5        30.09R
6HR MIN TEMP:  51; 6HR MAX TEMP:  60;

MONROE         CLOUDY    64  59  82 N6        30.08F
JANESVILLE     CLOUDY    64  57  77 NW6       30.08S
$$

WIZ051-052-058>065-066-070>072-221900-
SOUTHEAST WISCONSIN

CITY           SKY/WX    TMP DP  RH WIND       PRES   REMARKS
MILWAUKEE      CLOUDY    60  54  80 NE3       30.08S
6HR MIN TEMP:  49; 6HR MAX TEMP:  61; 6HR PCP: TRACE;

WAUKESHA       CLOUDY    57  54  88 NW6       30.09S
MILWAUKEE/TIMM CLOUDY    61  52  72 N5        30.08S
RACINE         CLOUDY    58  53  84 E6        30.09F
6HR MIN TEMP:  48; 6HR MAX TEMP:  59;

BURLINGTON     CLOUDY    60  55  81 CALM      30.08S
6HR MIN TEMP:  51; 6HR MAX TEMP:  61;

KENOSHA        CLOUDY    60  54  80 CALM      30.07F
6HR MIN TEMP:  50; 6HR MAX TEMP:  60;

FOND DU LAC    CLOUDY    60  54  80 NE3       30.08S
6HR MIN TEMP:  52; 6HR MAX TEMP:  61; 6HR PCP: TRACE;

SHEBOYGAN      CLOUDY    63  56  78 N3        30.07S
6HR MIN TEMP:  49; 6HR MAX TEMP:  63;

WEST BEND      CLOUDY    61  55  82 W3        30.07F
JUNEAU         CLOUDY    59  55  87 CALM      30.10R
6HR MIN TEMP:  50; 6HR MAX TEMP:  59;

$$

LSZ147-162-221900-
LAKE SUPERIOR

STATION/POSITION TIME  TEMP    WIND        PRES    WAVE
                       AIR SEA DIR/SP/G            HT/PER
                 (UTC) (F)     (DEG/KT/KT) (MB)    (FT/S)
W MID LAKE BUOY  1750   42 36  220/  8/ 10 1017.3S   0
DEVILS ISLAND    1800   61     240/  8/ 10 1017.0F
SAXON HARBOR     1730   67      50/  4/  5 1016.9S
$$

LMZ867-665-643>646-221900-
LAKE MICHIGAN

STATION/POSITION TIME  TEMP    WIND        PRES    WAVE



USA.gov is the U.S. government's official web portal to all federal, state and local government web resources and services.